When you browse on this site, cookies collect data to enhance your experience and personalize the content and advertising you see.
Visit our Privacy Policy to learn more. By continuing to use the site, you agree to this use of cookies and data.
  • en Suisse
  • Liste des pays
  • À 7 jours
  • Température de l'eau
  • Carte météo
  • Widgets météo
  • user-avatar
    Se connecter

    Météo par heure à Lehrte

    Ce jour, 4 Juin, Jeudi

    Heure Température Précipitation Vent Pression Humidité
    00:00 +14°C° 0.1 mm 2 m/s 744 mmHg 89%
    01:00 +14°C° 0 mm 2 m/s 744 mmHg 89%
    02:00 +14°C° 0.1 mm 2 m/s 743 mmHg 90%
    03:00 +14°C° 0.1 mm 2 m/s 742 mmHg 91%
    04:00 +13°C° 0.1 mm 2 m/s 742 mmHg 91%
    05:00 +14°C° 0 mm 2 m/s 741 mmHg 90%
    06:00 +15°C° 0 mm 1 m/s 741 mmHg 88%
    07:00 +18°C° 0 mm 1 m/s 741 mmHg 84%
    08:00 +17°C° 0.6 mm 2 m/s 741 mmHg 85%
    09:00 +17°C° 0.6 mm 3 m/s 740 mmHg 85%
    10:00 +17°C° 0.6 mm 4 m/s 740 mmHg 86%
    11:00 +17°C° 0.6 mm 3 m/s 740 mmHg 87%
    12:00 +17°C° 0.6 mm 2 m/s 739 mmHg 88%
    13:00 +16°C° 0.6 mm 1 m/s 739 mmHg 89%
    14:00 +17°C° 0.1 mm 2 m/s 739 mmHg 89%
    15:00 +17°C° 0.1 mm 2 m/s 739 mmHg 88%
    16:00 +17°C° 0.1 mm 3 m/s 738 mmHg 88%
    17:00 +14°C° 0.4 mm 4 m/s 738 mmHg 89%
    18:00 +13°C° 0.4 mm 5 m/s 738 mmHg 91%
    19:00 +11°C° 0.4 mm 6 m/s 738 mmHg 92%
    20:00 +10°C° 0.1 mm 5 m/s 739 mmHg 93%
    21:00 +11°C° 0.1 mm 4 m/s 739 mmHg 94%
    22:00 +10°C° 0.1 mm 4 m/s 740 mmHg 95%
    23:00 +10°C° 0 mm 4 m/s 740 mmHg 95%

    Demain, 5 Juin, Vendredi

    Heure Température Précipitation Vent Pression Humidité
    00:00 +9°C° 0 mm 3 m/s 740 mmHg 96%
    01:00 +9°C° 0 mm 3 m/s 740 mmHg 96%
    02:00 +8°C° 0 mm 3 m/s 741 mmHg 96%
    03:00 +8°C° 0 mm 3 m/s 741 mmHg 96%
    04:00 +7°C° 0 mm 3 m/s 741 mmHg 96%
    05:00 +8°C° 0 mm 3 m/s 741 mmHg 92%
    06:00 +9°C° 0 mm 3 m/s 741 mmHg 88%
    07:00 +10°C° 0 mm 3 m/s 741 mmHg 84%
    08:00 +11°C° 0 mm 4 m/s 741 mmHg 77%
    09:00 +13°C° 0 mm 4 m/s 741 mmHg 69%
    10:00 +14°C° 0 mm 4 m/s 740 mmHg 61%
    11:00 +15°C° 0.1 mm 5 m/s 740 mmHg 60%
    12:00 +15°C° 0.1 mm 6 m/s 739 mmHg 58%
    13:00 +16°C° 0.1 mm 6 m/s 739 mmHg 57%
    14:00 +15°C° 0.9 mm 6 m/s 738 mmHg 67%
    15:00 +13°C° 0.9 mm 6 m/s 738 mmHg 76%
    16:00 +12°C° 0.9 mm 5 m/s 738 mmHg 86%
    17:00 +10°C° 1.3 mm 5 m/s 738 mmHg 88%
    18:00 +11°C° 1.3 mm 4 m/s 738 mmHg 90%
    19:00 +10°C° 1.3 mm 4 m/s 738 mmHg 91%
    20:00 +8°C° 0.3 mm 4 m/s 739 mmHg 92%
    21:00 +9°C° 0.3 mm 3 m/s 739 mmHg 92%
    22:00 +8°C° 0.3 mm 3 m/s 740 mmHg 92%
    23:00 +7°C° 0.3 mm 4 m/s 740 mmHg 92%

    Après-demain, 6 Juin, Samedi

    Heure Température Précipitation Vent Pression Humidité
    00:00 +7°C° 0.3 mm 4 m/s 741 mmHg 92%
    01:00 +7°C° 0.3 mm 4 m/s 741 mmHg 92%
    02:00 +6°C° 0.1 mm 4 m/s 742 mmHg 92%
    03:00 +6°C° 0.1 mm 5 m/s 742 mmHg 92%
    04:00 +5°C° 0.1 mm 5 m/s 742 mmHg 93%
    05:00 +6°C° 0 mm 5 m/s 742 mmHg 90%
    06:00 +7°C° 0 mm 6 m/s 742 mmHg 87%
    07:00 +8°C° 0 mm 6 m/s 743 mmHg 84%
    08:00 +9°C° 0.4 mm 6 m/s 743 mmHg 81%
    09:00 +10°C° 0.4 mm 7 m/s 743 mmHg 77%
    10:00 +11°C° 0.4 mm 7 m/s 743 mmHg 74%
    11:00 +12°C° 0.4 mm 7 m/s 743 mmHg 68%
    12:00 +14°C° 0.4 mm 7 m/s 743 mmHg 62%
    13:00 +15°C° 0.4 mm 6 m/s 743 mmHg 57%
    14:00 +16°C° 0.1 mm 6 m/s 743 mmHg 55%
    15:00 +16°C° 0.1 mm 6 m/s 743 mmHg 53%
    16:00 +17°C° 0.1 mm 6 m/s 744 mmHg 51%
    17:00 +16°C° 0.1 mm 5 m/s 744 mmHg 57%
    18:00 +15°C° 0.1 mm 4 m/s 744 mmHg 63%
    19:00 +14°C° 0.1 mm 3 m/s 744 mmHg 68%
    20:00 +13°C° 0 mm 3 m/s 744 mmHg 70%
    21:00 +11°C° 0 mm 3 m/s 745 mmHg 72%
    22:00 +9°C° 0 mm 3 m/s 745 mmHg 74%
    23:00 +8°C° 0 mm 4 m/s 745 mmHg 74%

    7 Juin, Dimanche

    Heure Température Précipitation Vent Pression Humidité
    00:00 +8°C° 0 mm 4 m/s 745 mmHg 74%
    01:00 +8°C° 0 mm 5 m/s 745 mmHg 74%
    02:00 +8°C° 0 mm 5 m/s 746 mmHg 74%
    03:00 +8°C° 0 mm 5 m/s 746 mmHg 74%
    04:00 +8°C° 0 mm 6 m/s 746 mmHg 74%
    05:00 +9°C° 0 mm 6 m/s 746 mmHg 74%
    06:00 +10°C° 0 mm 7 m/s 747 mmHg 74%
    07:00 +11°C° 0 mm 7 m/s 747 mmHg 74%
    08:00 +12°C° 0.1 mm 7 m/s 748 mmHg 70%
    09:00 +14°C° 0.1 mm 7 m/s 748 mmHg 66%
    10:00 +16°C° 0.1 mm 6 m/s 749 mmHg 61%
    11:00 +16°C° 0 mm 6 m/s 749 mmHg 59%
    12:00 +17°C° 0 mm 5 m/s 749 mmHg 56%
    13:00 +19°C° 0 mm 5 m/s 750 mmHg 54%
    14:00 +19°C° 0 mm 4 m/s 750 mmHg 54%
    15:00 +20°C° 0 mm 4 m/s 750 mmHg 53%
    16:00 +20°C° 0 mm 3 m/s 750 mmHg 53%
    17:00 +20°C° 0 mm 3 m/s 750 mmHg 59%
    18:00 +19°C° 0 mm 2 m/s 750 mmHg 65%
    19:00 +19°C° 0 mm 1 m/s 750 mmHg 71%
    20:00 +17°C° 0 mm 2 m/s 751 mmHg 74%
    21:00 +15°C° 0 mm 2 m/s 751 mmHg 77%
    22:00 +13°C° 0 mm 2 m/s 751 mmHg 79%
    23:00 +13°C° 0 mm 2 m/s 751 mmHg 81%

    8 Juin, Lundi

    Heure Température Précipitation Vent Pression Humidité
    00:00 +12°C° 0 mm 2 m/s 751 mmHg 82%
    01:00 +12°C° 0 mm 2 m/s 751 mmHg 83%
    02:00 +10°C° 0 mm 2 m/s 751 mmHg 83%
    03:00 +10°C° 0 mm 2 m/s 752 mmHg 84%
    04:00 +11°C° 0 mm 1 m/s 752 mmHg 84%
    05:00 +12°C° 0 mm 1 m/s 752 mmHg 81%
    06:00 +14°C° 0 mm 1 m/s 752 mmHg 77%
    07:00 +15°C° 0 mm 1 m/s 752 mmHg 73%
    08:00 +16°C° 0 mm 1 m/s 752 mmHg 69%
    09:00 +19°C° 0 mm 1 m/s 752 mmHg 64%
    10:00 +20°C° 0 mm 1 m/s 753 mmHg 60%
    11:00 +20°C° 0.2 mm 2 m/s 752 mmHg 61%
    12:00 +20°C° 0.2 mm 2 m/s 752 mmHg 61%
    13:00 +20°C° 0.2 mm 3 m/s 752 mmHg 62%
    14:00 +20°C° 0.3 mm 3 m/s 752 mmHg 64%
    15:00 +20°C° 0.3 mm 4 m/s 753 mmHg 66%
    16:00 +19°C° 0.3 mm 4 m/s 753 mmHg 68%
    17:00 +19°C° 0.2 mm 4 m/s 753 mmHg 72%
    18:00 +18°C° 0.2 mm 3 m/s 753 mmHg 76%
    19:00 +17°C° 0.2 mm 3 m/s 753 mmHg 79%
    20:00 +16°C° 0 mm 2 m/s 753 mmHg 81%
    21:00 +15°C° 0 mm 2 m/s 754 mmHg 83%
    22:00 +13°C° 0 mm 2 m/s 754 mmHg 85%
    23:00 +13°C° 0 mm 2 m/s 754 mmHg 84%

    9 Juin, Mardi

    Heure Température Précipitation Vent Pression Humidité
    00:00 +13°C° 0 mm 1 m/s 754 mmHg 83%
    01:00 +13°C° 0 mm 1 m/s 754 mmHg 82%
    02:00 +13°C° 0 mm 1 m/s 754 mmHg 83%
    03:00 +13°C° 0 mm 1 m/s 754 mmHg 85%
    04:00 +13°C° 0 mm 1 m/s 754 mmHg 86%
    05:00 +13°C° 0 mm 1 m/s 754 mmHg 85%
    06:00 +14°C° 0 mm 1 m/s 755 mmHg 85%
    07:00 +15°C° 0 mm 2 m/s 755 mmHg 84%
    08:00 +15°C° 0.1 mm 2 m/s 755 mmHg 82%
    09:00 +15°C° 0.1 mm 2 m/s 755 mmHg 80%
    10:00 +16°C° 0.1 mm 2 m/s 755 mmHg 79%
    11:00 +16°C° 0 mm 3 m/s 755 mmHg 76%
    12:00 +17°C° 0 mm 3 m/s 755 mmHg 74%
    13:00 +17°C° 0 mm 3 m/s 755 mmHg 72%
    14:00 +17°C° 0 mm 3 m/s 755 mmHg 71%
    15:00 +18°C° 0 mm 3 m/s 755 mmHg 69%
    16:00 +18°C° 0 mm 3 m/s 755 mmHg 67%
    17:00 +18°C° 0 mm 3 m/s 755 mmHg 70%
    18:00 +17°C° 0 mm 2 m/s 755 mmHg 74%
    19:00 +17°C° 0 mm 2 m/s 755 mmHg 77%
    20:00 +15°C° 0 mm 1 m/s 755 mmHg 81%
    21:00 +14°C° 0 mm 1 m/s 756 mmHg 86%
    22:00 +12°C° 0 mm 1 m/s 756 mmHg 91%
    23:00 +12°C° 0 mm 1 m/s 756 mmHg 92%
    Voir plus